Home   Weather   Poughkeepsie   Past weeks
Flag for USA

Past Weather in Poughkeepsie, New York, USA — Yesterday and Last 2 Weeks

Now
51 °F

Fog.


Feels Like: 51 °F
Forecast: 62 / 43 °F
Wind: 3 mph from Northeast

Location: Dutchess County Airport

Current Time: Oct 20, 2019 at 10:34:48 pm

Latest Report: Oct 20, 2019 at 9:53 pm


Visibility: 5 mi

Pressure: 30.01 "Hg

Humidity: 92%

Dew Point: 49 °F

Location of PoughkeepsieLocation

Past Weather in Poughkeepsie — Graph

°F

Poughkeepsie Temperature Yesterday

Maximum temperature yesterday: 61 °F (at 3:53 pm)
Minimum temperature yesterday: 32 °F (at 6:53 am)
Average temperature yesterday: 45 °F

High & Low Weather Summary for the Past Weeks

 TemperatureHumidityPressure
High72 °F (Oct 7, 12:53 pm)100% (Oct 8, 5:53 am)30.37 "Hg (Oct 8, 5:53 am)
Low32 °F (Oct 19, 6:53 am)33% (Oct 14, 5:53 pm)29.16 "Hg (Oct 17, 5:53 am)
Average54 °F72%30.01 "Hg
* Reported Oct 5 8:53 pm — Oct 20 8:53 pm, Poughkeepsie. Weather by CustomWeather, © 2019

Note: Actual official high and low records may vary slightly from our data, if they occured in-between our weather recording intervals... More about our weather records

Advertising

Poughkeepsie Weather History for the Previous 24 Hours

Scroll right to see more
 ConditionsComfort  
Time TempWeatherWind HumidityBarometerVisibility
8:53 pm
Sun, Oct 20
51 °FFog.No wind92%30.01 "Hg5 mi
7:53 pm51 °FFog.No wind92%30.01 "Hg6 mi
6:53 pm52 °FFog.No wind93%30.01 "Hg5 mi
6:21 pm52 °FLight rain. Fog.No wind89%30.01 "Hg5 mi
5:53 pm52 °FLight rain. Fog.3 mph93%30.01 "Hg4 mi
4:53 pm52 °FLight rain. Fog.3 mph93%30.01 "Hg3 mi
4:38 pm52 °FLight rain. Fog.3 mph89%30.03 "Hg3 mi
3:53 pm52 °FLight rain. Fog.No wind89%30.02 "Hg3 mi
2:53 pm53 °FLight rain. Mostly cloudy.No wind80%30.03 "Hg5 mi
1:53 pm54 °FLight rain. Overcast.No wind72%30.04 "Hg9 mi
12:53 pm54 °FOvercast.No wind69%30.04 "Hg10 mi
11:53 am53 °FSunny.No wind69%30.04 "Hg10 mi
10:53 am50 °FSunny.No wind74%30.05 "Hg10 mi
9:53 am45 °FPassing clouds.No wind82%30.06 "Hg10 mi
8:53 am41 °FSunny.No wind86%30.05 "Hg10 mi
8:15 am37 °FFog.No wind89%30.06 "Hg2 mi
8:01 am36 °FScattered clouds.No wind92%30.05 "Hg10 mi
6:53 am35 °FClear.No wind92%30.02 "Hg10 mi
5:53 am33 °FClear.No wind92%30.03 "Hg10 mi
4:53 am34 °FClear.No wind88%30.02 "Hg10 mi
3:53 am34 °FClear.No wind88%30.02 "Hg10 mi
2:53 am36 °FClear.No wind89%30.04 "Hg10 mi
1:53 am36 °FClear.No wind92%30.03 "Hg10 mi
12:53 am37 °FClear.No wind89%30.03 "Hg10 mi
11:53 pm
Sat, Oct 19
39 °FClear.No wind86%30.03 "Hg10 mi
10:53 pm41 °FClear.No wind89%30.02 "Hg10 mi
Weather by CustomWeather, © 2019

See weather overview